Time,TemperatureF,DewpointF,PressureIn,WindDirection,WindDirectionDegrees,WindSpeedMPH,WindSpeedGustMPH,Humidity,HourlyPrecipIn,Conditions,Clouds,dailyrainin,SoftwareType,DateUTC
2013-02-02 00:00:00,45.1,38.7,30.22,NNE,22,0.0,0.0,78,0.00,,,0.00,LWC V2.11 B50,2013-02-02 08:00:00,
2013-02-02 00:05:00,47.2,42.8,29.80,ESE,107,0.0,0.7,86,0.00,,,0.00,WeatherCatV1.15B25,2013-02-02 08:05:00,
2013-02-02 00:10:00,45.1,38.7,30.22,NNE,22,0.0,0.0,78,0.00,,,0.00,LWC V2.11 B50,2013-02-02 08:10:00,
2013-02-02 00:15:00,47.2,42.8,29.80,ESE,107,0.0,0.7,86,0.00,,,0.00,WeatherCatV1.15B25,2013-02-02 08:15:00,
2013-02-02 00:20:00,45.1,38.7,30.22,NNE,22,0.0,0.0,78,0.00,,,0.00,LWC V2.11 B50,2013-02-02 08:20:00,
2013-02-02 00:25:00,47.2,42.8,29.80,ESE,107,0.0,0.7,86,0.00,,,0.00,WeatherCatV1.15B25,2013-02-02 08:25:00,
2013-02-02 00:30:00,45.1,38.7,30.22,NNE,22,0.0,0.0,78,0.00,,,0.00,LWC V2.11 B50,2013-02-02 08:30:00,
2013-02-02 00:35:00,47.2,42.8,29.80,ESE,107,0.0,0.7,86,0.00,,,0.00,WeatherCatV1.15B25,2013-02-02 08:35:00,
2013-02-02 00:40:00,45.1,38.7,30.22,NNE,22,0.0,0.0,78,0.00,,,0.00,LWC V2.11 B50,2013-02-02 08:40:00,
2013-02-02 00:45:00,47.2,42.8,29.80,ESE,107,0.0,0.7,86,0.00,,,0.00,WeatherCatV1.15B25,2013-02-02 08:45:00,
2013-02-02 00:50:00,45.1,38.7,30.22,NNE,22,0.0,0.0,78,0.00,,,0.00,LWC V2.11 B50,2013-02-02 08:50:00,
2013-02-02 00:55:00,47.2,42.8,29.80,ESE,107,0.0,0.7,86,0.00,,,0.00,WeatherCatV1.15B25,2013-02-02 08:55:00,
2013-02-02 01:00:00,45.1,38.7,30.22,NNE,22,0.0,0.0,78,0.00,,,0.00,LWC V2.11 B50,2013-02-02 09:00:00,
2013-02-02 01:05:00,47.2,42.8,29.80,ESE,107,0.0,0.7,86,0.00,,,0.00,WeatherCatV1.15B25,2013-02-02 09:05:00,
2013-02-02 01:10:00,44.8,38.4,30.23,NNE,22,0.0,0.0,78,0.00,,,0.00,LWC V2.11 B50,2013-02-02 09:10:00,
2013-02-02 01:15:00,47.2,42.8,29.80,ESE,107,0.0,0.7,86,0.00,,,0.00,WeatherCatV1.15B25,2013-02-02 09:15:00,
2013-02-02 01:20:00,44.8,38.4,30.23,NNE,22,0.0,0.0,78,0.00,,,0.00,LWC V2.11 B50,2013-02-02 09:20:00,
2013-02-02 01:25:00,47.2,42.8,29.80,ESE,107,0.0,0.7,86,0.00,,,0.00,WeatherCatV1.15B25,2013-02-02 09:25:00,
2013-02-02 01:30:00,44.8,38.4,30.23,NNE,22,0.0,0.0,78,0.00,,,0.00,LWC V2.11 B50,2013-02-02 09:30:00,
2013-02-02 01:35:00,47.2,42.8,29.80,ESE,107,0.0,0.7,86,0.00,,,0.00,WeatherCatV1.15B25,2013-02-02 09:35:00,
2013-02-02 01:40:00,44.8,38.4,30.23,NNE,22,0.0,0.0,78,0.00,,,0.00,LWC V2.11 B50,2013-02-02 09:40:00,
2013-02-02 01:45:00,47.2,42.8,29.80,ESE,107,0.0,0.7,86,0.00,,,0.00,WeatherCatV1.15B25,2013-02-02 09:45:00,
2013-02-02 01:50:00,44.8,38.4,30.23,NNE,22,0.0,0.0,78,0.00,,,0.00,LWC V2.11 B50,2013-02-02 09:50:00,
2013-02-02 01:55:00,47.2,42.8,29.80,ESE,107,0.0,0.7,86,0.00,,,0.00,WeatherCatV1.15B25,2013-02-02 09:55:00,
2013-02-02 02:00:00,45.0,38.2,30.23,NNE,22,0.0,0.0,77,0.00,,,0.00,LWC V2.11 B50,2013-02-02 10:00:00,
2013-02-02 02:05:00,47.2,42.8,29.80,ESE,107,0.0,0.7,86,0.00,,,0.00,WeatherCatV1.15B25,2013-02-02 10:05:00,
2013-02-02 02:10:00,45.0,38.2,30.23,NNE,22,0.0,0.0,77,0.00,,,0.00,LWC V2.11 B50,2013-02-02 10:10:00,
2013-02-02 02:15:00,47.2,42.7,29.80,ESE,107,0.0,0.7,86,0.00,,,0.00,WeatherCatV1.15B25,2013-02-02 10:15:00,
2013-02-02 02:20:00,45.0,38.2,30.23,NNE,22,0.0,0.0,77,0.00,,,0.00,LWC V2.11 B50,2013-02-02 10:20:00,
2013-02-02 02:25:00,47.2,42.7,29.80,ESE,107,0.0,0.7,86,0.00,,,0.00,WeatherCatV1.15B25,2013-02-02 10:25:00,
2013-02-02 02:30:00,45.0,38.2,30.23,NNE,22,0.0,0.0,77,0.00,,,0.00,LWC V2.11 B50,2013-02-02 10:30:00,
2013-02-02 02:35:00,47.2,42.7,29.80,ESE,107,0.0,0.7,86,0.00,,,0.00,WeatherCatV1.15B25,2013-02-02 10:35:00,
2013-02-02 02:40:00,45.0,38.2,30.23,NNE,22,0.0,0.0,77,0.00,,,0.00,LWC V2.11 B50,2013-02-02 10:40:00,
2013-02-02 02:45:00,47.2,42.7,29.80,ESE,107,0.0,0.7,86,0.00,,,0.00,WeatherCatV1.15B25,2013-02-02 10:45:00,
2013-02-02 02:50:00,45.0,38.2,30.23,NNE,22,0.0,0.0,77,0.00,,,0.00,LWC V2.11 B50,2013-02-02 10:50:00,
2013-02-02 02:55:00,47.2,42.7,29.80,ESE,107,0.0,0.7,86,0.00,,,0.00,WeatherCatV1.15B25,2013-02-02 10:55:00,
2013-02-02 03:00:00,43.7,37.6,30.23,NNE,22,0.0,0.0,79,0.00,,,0.00,LWC V2.11 B50,2013-02-02 11:00:00,
2013-02-02 03:05:00,47.2,42.7,29.80,ESE,107,0.0,0.7,86,0.00,,,0.00,WeatherCatV1.15B25,2013-02-02 11:05:00,
2013-02-02 03:10:00,43.7,37.6,30.23,NNE,22,0.0,0.0,79,0.00,,,0.00,LWC V2.11 B50,2013-02-02 11:10:00,
2013-02-02 03:15:00,47.2,42.7,29.80,ESE,107,0.0,0.7,86,0.00,,,0.00,WeatherCatV1.15B25,2013-02-02 11:15:00,
2013-02-02 03:20:00,43.7,37.6,30.23,NNE,22,0.0,0.0,79,0.00,,,0.00,LWC V2.11 B50,2013-02-02 11:20:00,
2013-02-02 03:25:00,47.2,42.7,29.80,ESE,107,0.0,0.7,86,0.00,,,0.00,WeatherCatV1.15B25,2013-02-02 11:25:00,
2013-02-02 03:30:00,43.7,37.6,30.23,NNE,22,0.0,0.0,79,0.00,,,0.00,LWC V2.11 B50,2013-02-02 11:30:00,
2013-02-02 03:35:00,47.2,42.7,29.80,ESE,107,0.0,0.7,86,0.00,,,0.00,WeatherCatV1.15B25,2013-02-02 11:35:00,
2013-02-02 03:40:00,43.7,37.6,30.23,NNE,22,0.0,0.0,79,0.00,,,0.00,LWC V2.11 B50,2013-02-02 11:40:00,
2013-02-02 03:45:00,47.2,42.7,29.80,ESE,107,0.0,0.7,86,0.00,,,0.00,WeatherCatV1.15B25,2013-02-02 11:45:00,
2013-02-02 03:50:00,43.7,37.6,30.23,NNE,22,0.0,0.0,79,0.00,,,0.00,LWC V2.11 B50,2013-02-02 11:50:00,
2013-02-02 03:55:00,47.2,42.7,29.80,ESE,107,0.0,0.7,86,0.00,,,0.00,WeatherCatV1.15B25,2013-02-02 11:55:00,
2013-02-02 04:00:00,43.7,37.6,30.23,NNE,22,0.0,0.0,79,0.00,,,0.00,LWC V2.11 B50,2013-02-02 12:00:00,
2013-02-02 04:05:00,47.2,42.7,29.80,ESE,107,0.0,0.7,86,0.00,,,0.00,WeatherCatV1.15B25,2013-02-02 12:05:00,
2013-02-02 04:10:00,44.2,37.8,30.22,NE,45,0.0,1.0,78,0.00,,,0.00,LWC V2.11 B50,2013-02-02 12:10:00,
2013-02-02 04:15:00,47.2,42.7,29.80,ESE,107,0.0,0.7,86,0.00,,,0.00,WeatherCatV1.15B25,2013-02-02 12:15:00,
2013-02-02 04:20:00,44.2,37.8,30.22,NE,45,0.0,1.0,78,0.00,,,0.00,LWC V2.11 B50,2013-02-02 12:20:00,
2013-02-02 04:25:00,47.2,42.7,29.80,ESE,107,0.0,0.7,86,0.00,,,0.00,WeatherCatV1.15B25,2013-02-02 12:25:00,
2013-02-02 04:30:00,44.2,37.8,30.22,NE,45,0.0,1.0,78,0.00,,,0.00,LWC V2.11 B50,2013-02-02 12:30:00,
2013-02-02 04:35:00,47.2,42.7,29.80,ESE,107,0.0,0.7,86,0.00,,,0.00,WeatherCatV1.15B25,2013-02-02 12:35:00,
2013-02-02 04:40:00,44.2,37.8,30.22,NE,45,0.0,1.0,78,0.00,,,0.00,LWC V2.11 B50,2013-02-02 12:40:00,
2013-02-02 04:45:00,47.2,42.7,29.80,ESE,107,0.0,0.7,86,0.00,,,0.00,WeatherCatV1.15B25,2013-02-02 12:45:00,
2013-02-02 04:50:00,44.2,37.8,30.22,NE,45,0.0,1.0,78,0.00,,,0.00,LWC V2.11 B50,2013-02-02 12:50:00,
2013-02-02 04:55:00,47.2,42.7,29.80,ESE,107,0.0,0.7,86,0.00,,,0.00,WeatherCatV1.15B25,2013-02-02 12:55:00,
2013-02-02 05:00:00,44.2,37.8,30.22,NE,45,0.0,1.0,78,0.00,,,0.00,LWC V2.11 B50,2013-02-02 13:00:00,
2013-02-02 05:05:00,47.2,42.7,29.80,ESE,107,0.0,0.7,86,0.00,,,0.00,WeatherCatV1.15B25,2013-02-02 13:05:00,
2013-02-02 05:10:00,42.8,36.8,30.22,NE,45,0.0,1.0,79,0.00,,,0.00,LWC V2.11 B50,2013-02-02 13:10:00,
2013-02-02 05:15:00,47.2,42.7,29.80,ESE,107,0.0,0.7,86,0.00,,,0.00,WeatherCatV1.15B25,2013-02-02 13:15:00,
2013-02-02 05:20:00,42.8,36.8,30.22,NE,45,0.0,1.0,79,0.00,,,0.00,LWC V2.11 B50,2013-02-02 13:20:00,
2013-02-02 05:25:00,47.2,42.7,29.80,ESE,107,0.0,0.7,86,0.00,,,0.00,WeatherCatV1.15B25,2013-02-02 13:25:00,
2013-02-02 05:30:00,42.8,36.8,30.22,NE,45,0.0,1.0,79,0.00,,,0.00,LWC V2.11 B50,2013-02-02 13:30:00,
2013-02-02 05:35:00,47.2,42.7,29.80,ESE,107,0.0,0.7,86,0.00,,,0.00,WeatherCatV1.15B25,2013-02-02 13:35:00,
2013-02-02 05:40:00,42.8,36.8,30.22,NE,45,0.0,1.0,79,0.00,,,0.00,LWC V2.11 B50,2013-02-02 13:40:00,
2013-02-02 05:45:00,47.2,42.7,29.80,ESE,107,0.0,0.7,86,0.00,,,0.00,WeatherCatV1.15B25,2013-02-02 13:45:00,
2013-02-02 05:50:00,42.8,36.8,30.22,NE,45,0.0,1.0,79,0.00,,,0.00,LWC V2.11 B50,2013-02-02 13:50:00,
2013-02-02 05:55:00,47.2,42.7,29.80,ESE,107,0.0,0.7,86,0.00,,,0.00,WeatherCatV1.15B25,2013-02-02 13:55:00,
2013-02-02 06:00:00,42.8,36.8,30.22,NE,45,0.0,1.0,79,0.00,,,0.00,LWC V2.11 B50,2013-02-02 14:00:00,
2013-02-02 06:05:00,47.2,42.7,29.80,ESE,107,0.0,0.7,86,0.00,,,0.00,WeatherCatV1.15B25,2013-02-02 14:05:00,
2013-02-02 06:10:00,42.5,37.1,30.22,NE,45,0.0,1.0,81,0.00,,,0.00,LWC V2.11 B50,2013-02-02 14:10:00,
2013-02-02 06:15:00,47.2,42.7,29.80,ESE,107,0.0,0.7,86,0.00,,,0.00,WeatherCatV1.15B25,2013-02-02 14:15:00,
2013-02-02 06:20:00,42.5,37.1,30.22,NE,45,0.0,1.0,81,0.00,,,0.00,LWC V2.11 B50,2013-02-02 14:20:00,
2013-02-02 06:25:00,47.2,42.7,29.80,ESE,107,0.0,0.7,86,0.00,,,0.00,WeatherCatV1.15B25,2013-02-02 14:25:00,
2013-02-02 06:30:00,42.5,37.1,30.22,NE,45,0.0,1.0,81,0.00,,,0.00,LWC V2.11 B50,2013-02-02 14:30:00,
2013-02-02 06:35:00,47.2,42.7,29.80,ESE,107,0.0,0.7,86,0.00,,,0.00,WeatherCatV1.15B25,2013-02-02 14:35:00,
2013-02-02 06:40:00,42.5,37.1,30.22,NE,45,0.0,1.0,81,0.00,,,0.00,LWC V2.11 B50,2013-02-02 14:40:00,
2013-02-02 06:45:00,47.2,42.7,29.80,ESE,107,0.0,0.7,86,0.00,,,0.00,WeatherCatV1.15B25,2013-02-02 14:45:00,
2013-02-02 06:50:00,42.5,37.1,30.22,NE,45,0.0,1.0,81,0.00,,,0.00,LWC V2.11 B50,2013-02-02 14:50:00,
2013-02-02 06:55:00,47.2,42.7,29.80,ESE,107,0.0,0.7,86,0.00,,,0.00,WeatherCatV1.15B25,2013-02-02 14:55:00,
2013-02-02 07:00:00,42.5,37.1,30.22,NE,45,0.0,1.0,81,0.00,,,0.00,LWC V2.11 B50,2013-02-02 15:00:00,
2013-02-02 07:05:00,47.2,42.7,29.80,ESE,107,0.0,0.7,86,0.00,,,0.00,WeatherCatV1.15B25,2013-02-02 15:05:00,
2013-02-02 07:10:00,43.9,36.5,30.23,NE,45,0.0,1.0,75,0.00,,,0.00,LWC V2.11 B50,2013-02-02 15:10:00,
2013-02-02 07:15:00,47.2,42.7,29.80,ESE,107,0.0,0.7,86,0.00,,,0.00,WeatherCatV1.15B25,2013-02-02 15:15:00,
2013-02-02 07:20:00,43.9,36.5,30.23,NE,45,0.0,1.0,75,0.00,,,0.00,LWC V2.11 B50,2013-02-02 15:20:00,
2013-02-02 07:25:00,47.2,42.7,29.80,ESE,107,0.0,0.7,86,0.00,,,0.00,WeatherCatV1.15B25,2013-02-02 15:25:00,
2013-02-02 07:30:00,43.9,36.5,30.23,NE,45,0.0,1.0,75,0.00,,,0.00,LWC V2.11 B50,2013-02-02 15:30:00,
2013-02-02 07:35:00,47.2,42.7,29.80,ESE,107,0.0,0.7,86,0.00,,,0.00,WeatherCatV1.15B25,2013-02-02 15:35:00,
2013-02-02 07:40:00,43.9,36.5,30.23,NE,45,0.0,1.0,75,0.00,,,0.00,LWC V2.11 B50,2013-02-02 15:40:00,
2013-02-02 07:45:00,47.2,42.7,29.80,ESE,107,0.0,0.7,86,0.00,,,0.00,WeatherCatV1.15B25,2013-02-02 15:45:00,
2013-02-02 07:50:00,43.9,36.5,30.23,NE,45,0.0,1.0,75,0.00,,,0.00,LWC V2.11 B50,2013-02-02 15:50:00,
2013-02-02 07:55:00,47.2,42.7,29.80,ESE,107,0.0,0.7,86,0.00,,,0.00,WeatherCatV1.15B25,2013-02-02 15:55:00,
2013-02-02 08:00:00,43.9,36.5,30.23,NE,45,0.0,1.0,75,0.00,,,0.00,LWC V2.11 B50,2013-02-02 16:00:00,
2013-02-02 08:05:00,47.2,42.7,29.80,ESE,107,0.0,0.7,86,0.00,,,0.00,WeatherCatV1.15B25,2013-02-02 16:05:00,
2013-02-02 08:10:00,43.8,36.7,30.25,NE,45,0.0,1.0,76,0.00,,,0.00,LWC V2.11 B50,2013-02-02 16:10:00,
2013-02-02 08:15:00,47.2,42.7,29.80,ESE,107,0.0,0.7,86,0.00,,,0.00,WeatherCatV1.15B25,2013-02-02 16:15:00,
2013-02-02 08:20:00,43.8,36.7,30.25,NE,45,0.0,1.0,76,0.00,,,0.00,LWC V2.11 B50,2013-02-02 16:20:00,
2013-02-02 08:25:00,47.2,42.7,29.80,ESE,107,0.0,0.7,86,0.00,,,0.00,WeatherCatV1.15B25,2013-02-02 16:25:00,
2013-02-02 08:30:00,43.8,36.7,30.25,NE,45,0.0,1.0,76,0.00,,,0.00,LWC V2.11 B50,2013-02-02 16:30:00,
2013-02-02 08:35:00,47.2,42.7,29.80,ESE,107,0.0,0.7,86,0.00,,,0.00,WeatherCatV1.15B25,2013-02-02 16:35:00,
2013-02-02 08:40:00,43.8,36.7,30.25,NE,45,0.0,1.0,76,0.00,,,0.00,LWC V2.11 B50,2013-02-02 16:40:00,
2013-02-02 08:45:00,47.2,42.7,29.80,ESE,107,0.0,0.7,86,0.00,,,0.00,WeatherCatV1.15B25,2013-02-02 16:45:00,
2013-02-02 08:50:00,43.8,36.7,30.25,NE,45,0.0,1.0,76,0.00,,,0.00,LWC V2.11 B50,2013-02-02 16:50:00,
2013-02-02 08:55:00,47.2,42.7,29.80,ESE,107,0.0,0.7,86,0.00,,,0.00,WeatherCatV1.15B25,2013-02-02 16:55:00,
2013-02-02 09:00:00,43.8,36.7,30.25,NE,45,0.0,1.0,76,0.00,,,0.00,LWC V2.11 B50,2013-02-02 17:00:00,
2013-02-02 09:05:00,47.2,42.7,29.80,ESE,107,0.0,0.7,86,0.00,,,0.00,WeatherCatV1.15B25,2013-02-02 17:05:00,
2013-02-02 09:10:00,46.0,38.9,30.26,NE,45,0.0,1.0,76,0.00,,,0.00,LWC V2.11 B50,2013-02-02 17:10:00,
2013-02-02 09:15:00,47.2,42.7,29.80,ESE,107,0.0,0.7,86,0.00,,,0.00,WeatherCatV1.15B25,2013-02-02 17:15:00,
2013-02-02 09:20:00,46.0,38.9,30.26,NE,45,0.0,1.0,76,0.00,,,0.00,LWC V2.11 B50,2013-02-02 17:20:00,
2013-02-02 09:25:00,47.2,42.7,29.80,ESE,107,0.0,0.7,86,0.00,,,0.00,WeatherCatV1.15B25,2013-02-02 17:25:00,
2013-02-02 09:30:00,46.0,38.9,30.26,NE,45,0.0,1.0,76,0.00,,,0.00,LWC V2.11 B50,2013-02-02 17:30:00,
2013-02-02 09:35:00,47.2,42.7,29.80,ESE,107,0.0,0.7,86,0.00,,,0.00,WeatherCatV1.15B25,2013-02-02 17:35:00,
2013-02-02 09:40:00,46.0,38.9,30.26,NE,45,0.0,1.0,76,0.00,,,0.00,LWC V2.11 B50,2013-02-02 17:40:00,
2013-02-02 09:45:00,47.2,42.7,29.80,ESE,107,0.0,0.7,86,0.00,,,0.00,WeatherCatV1.15B25,2013-02-02 17:45:00,
2013-02-02 09:50:00,46.0,38.9,30.26,NE,45,0.0,1.0,76,0.00,,,0.00,LWC V2.11 B50,2013-02-02 17:50:00,
2013-02-02 09:55:00,47.2,42.7,29.80,ESE,107,0.0,0.7,86,0.00,,,0.00,WeatherCatV1.15B25,2013-02-02 17:55:00,
2013-02-02 10:00:00,50.9,40.0,30.26,NE,45,0.0,0.0,66,0.00,,,0.00,LWC V2.11 B50,2013-02-02 18:00:00,
2013-02-02 10:05:00,47.2,42.7,29.80,ESE,107,0.0,0.7,86,0.00,,,0.00,WeatherCatV1.15B25,2013-02-02 18:05:00,
2013-02-02 10:10:00,47.2,42.7,29.80,ESE,107,0.0,0.7,86,0.00,,,0.00,WeatherCatV1.15B25,2013-02-02 18:10:00,
2013-02-02 10:15:00,47.2,42.7,29.80,ESE,107,0.0,0.7,86,0.00,,,0.00,WeatherCatV1.15B25,2013-02-02 18:15:00,
2013-02-02 10:19:00,52.0,41.4,30.26,NE,36,0.0,0.0,67,0.00,,,0.00,LWC V2.11 B50,2013-02-02 18:19:00,
2013-02-02 10:20:00,47.2,42.7,29.80,ESE,107,0.0,0.7,86,0.00,,,0.00,WeatherCatV1.15B25,2013-02-02 18:20:00,
2013-02-02 10:24:00,52.2,40.8,30.26,NE,36,0.0,0.0,65,0.00,,,0.00,LWC V2.11 B50,2013-02-02 18:24:00,
2013-02-02 10:25:00,47.2,42.7,29.80,ESE,107,0.0,0.7,86,0.00,,,0.00,WeatherCatV1.15B25,2013-02-02 18:25:00,
2013-02-02 10:29:00,52.4,41.8,30.26,NE,36,0.0,0.0,67,0.00,,,0.00,LWC V2.11 B50,2013-02-02 18:29:00,
2013-02-02 10:30:00,47.2,42.7,29.80,ESE,107,0.0,0.7,86,0.00,,,0.00,WeatherCatV1.15B25,2013-02-02 18:30:00,
2013-02-02 10:34:00,52.7,41.7,30.27,NE,36,0.0,0.0,66,0.00,,,0.00,LWC V2.11 B50,2013-02-02 18:34:00,
2013-02-02 10:35:00,47.2,42.7,29.80,ESE,107,0.0,0.7,86,0.00,,,0.00,WeatherCatV1.15B25,2013-02-02 18:35:00,
2013-02-02 10:39:00,53.2,42.9,30.27,NE,36,0.0,0.0,68,0.00,,,0.00,LWC V2.11 B50,2013-02-02 18:39:00,
2013-02-02 10:40:00,47.2,42.7,29.80,ESE,107,0.0,0.7,86,0.00,,,0.00,WeatherCatV1.15B25,2013-02-02 18:40:00,
2013-02-02 10:44:00,53.7,43.8,30.27,NE,36,0.0,0.0,69,0.00,,,0.00,LWC V2.11 B50,2013-02-02 18:44:00,
2013-02-02 10:45:00,47.2,42.7,29.80,ESE,107,0.0,0.7,86,0.00,,,0.00,WeatherCatV1.15B25,2013-02-02 18:45:00,
2013-02-02 10:49:00,54.1,43.8,30.27,NE,36,0.0,0.0,68,0.00,,,0.00,LWC V2.11 B50,2013-02-02 18:49:00,
2013-02-02 10:50:00,47.2,42.7,29.80,ESE,107,0.0,0.7,86,0.00,,,0.00,WeatherCatV1.15B25,2013-02-02 18:50:00,
2013-02-02 10:54:00,54.6,43.1,30.27,NE,36,0.0,0.0,65,0.00,,,0.00,LWC V2.11 B50,2013-02-02 18:54:00,
2013-02-02 10:55:00,47.2,42.7,29.80,ESE,107,0.0,0.7,86,0.00,,,0.00,WeatherCatV1.15B25,2013-02-02 18:55:00,
2013-02-02 10:59:00,55.2,43.6,30.26,NE,36,0.0,0.0,65,0.00,,,0.00,LWC V2.11 B50,2013-02-02 18:59:00,
2013-02-02 11:00:00,47.2,42.7,29.80,ESE,107,0.0,0.7,86,0.00,,,0.00,WeatherCatV1.15B25,2013-02-02 19:00:00,
2013-02-02 11:04:00,56.0,43.6,30.26,NE,36,0.0,0.0,63,0.00,,,0.00,LWC V2.11 B50,2013-02-02 19:04:00,
2013-02-02 11:05:00,47.2,42.7,29.80,ESE,107,0.0,0.7,86,0.00,,,0.00,WeatherCatV1.15B25,2013-02-02 19:05:00,
2013-02-02 11:09:00,56.7,40.2,30.26,NE,36,0.0,0.0,54,0.00,,,0.00,LWC V2.11 B50,2013-02-02 19:09:00,
2013-02-02 11:10:00,47.2,42.7,29.80,ESE,107,0.0,0.7,86,0.00,,,0.00,WeatherCatV1.15B25,2013-02-02 19:10:00,
2013-02-02 11:14:00,57.3,38.3,30.26,NE,36,0.0,0.0,49,0.00,,,0.00,LWC V2.11 B50,2013-02-02 19:14:00,
2013-02-02 11:15:00,47.2,42.7,29.80,ESE,107,0.0,0.7,86,0.00,,,0.00,WeatherCatV1.15B25,2013-02-02 19:15:00,
2013-02-02 11:19:00,57.6,38.1,30.26,NE,36,0.0,0.0,48,0.00,,,0.00,LWC V2.11 B50,2013-02-02 19:19:00,
2013-02-02 11:20:00,47.2,42.7,29.80,ESE,107,0.0,0.7,86,0.00,,,0.00,WeatherCatV1.15B25,2013-02-02 19:20:00,
2013-02-02 11:24:00,58.0,38.4,30.26,NE,36,0.0,0.0,48,0.00,,,0.00,LWC V2.11 B50,2013-02-02 19:24:00,
2013-02-02 11:25:00,47.2,42.7,29.80,ESE,107,0.0,0.7,86,0.00,,,0.00,WeatherCatV1.15B25,2013-02-02 19:25:00,
2013-02-02 11:29:00,58.5,38.3,30.25,NE,36,0.0,0.0,47,0.00,,,0.00,LWC V2.11 B50,2013-02-02 19:29:00,
2013-02-02 11:30:00,47.2,42.7,29.80,ESE,107,0.0,0.7,86,0.00,,,0.00,WeatherCatV1.15B25,2013-02-02 19:30:00,
2013-02-02 11:34:00,58.9,38.2,30.25,NW,323,0.0,0.0,46,0.00,,,0.00,LWC V2.11 B50,2013-02-02 19:34:00,
2013-02-02 11:35:00,47.2,42.7,29.80,ESE,106,0.0,0.7,86,0.00,,,0.00,WeatherCatV1.15B25,2013-02-02 19:35:00,
2013-02-02 11:39:00,59.1,38.9,30.25,NW,323,0.0,0.0,47,0.00,,,0.00,LWC V2.11 B50,2013-02-02 19:39:00,
2013-02-02 11:40:00,47.2,42.7,29.80,ESE,106,0.0,0.7,86,0.00,,,0.00,WeatherCatV1.15B25,2013-02-02 19:40:00,
2013-02-02 11:44:00,59.4,40.8,30.25,NW,304,0.0,0.0,50,0.00,,,0.00,LWC V2.11 B50,2013-02-02 19:44:00,
2013-02-02 11:45:00,47.2,42.7,29.80,ESE,106,0.0,0.7,86,0.00,,,0.00,WeatherCatV1.15B25,2013-02-02 19:45:00,
2013-02-02 11:49:00,59.4,39.2,30.25,WSW,255,0.0,0.0,47,0.00,,,0.00,LWC V2.11 B50,2013-02-02 19:49:00,
2013-02-02 11:50:00,47.2,42.7,29.80,ESE,106,0.0,0.7,86,0.00,,,0.00,WeatherCatV1.15B25,2013-02-02 19:50:00,
2013-02-02 11:54:00,59.6,39.3,30.25,WSW,256,0.0,1.0,47,0.00,,,0.00,LWC V2.11 B50,2013-02-02 19:54:00,
2013-02-02 11:55:00,47.2,42.7,29.80,ESE,106,0.0,0.7,86,0.00,,,0.00,WeatherCatV1.15B25,2013-02-02 19:55:00,
2013-02-02 11:59:00,59.8,38.4,30.25,WSW,248,0.0,1.0,45,0.00,,,0.00,LWC V2.11 B50,2013-02-02 19:59:00,
2013-02-02 12:00:00,47.2,42.7,29.80,ESE,106,0.0,0.7,86,0.00,,,0.00,WeatherCatV1.15B25,2013-02-02 20:00:00,
2013-02-02 12:04:00,60.0,38.0,30.25,WSW,248,0.0,1.0,44,0.00,,,0.00,LWC V2.11 B50,2013-02-02 20:04:00,
2013-02-02 12:05:00,47.2,42.7,29.80,ESE,106,0.0,0.7,86,0.00,,,0.00,WeatherCatV1.15B25,2013-02-02 20:05:00,
2013-02-02 12:09:00,60.1,38.1,30.25,WSW,248,0.0,0.0,44,0.00,,,0.00,LWC V2.11 B50,2013-02-02 20:09:00,
2013-02-02 12:10:00,47.2,42.7,29.80,ESE,106,0.0,0.7,86,0.00,,,0.00,WeatherCatV1.15B25,2013-02-02 20:10:00,
2013-02-02 12:14:00,60.5,38.5,30.24,WSW,248,0.0,0.0,44,0.00,,,0.00,LWC V2.11 B50,2013-02-02 20:14:00,
2013-02-02 12:15:00,47.2,42.7,29.80,ESE,106,0.0,0.7,86,0.00,,,0.00,WeatherCatV1.15B25,2013-02-02 20:15:00,
2013-02-02 12:19:00,60.7,38.7,30.24,WSW,249,0.0,0.0,44,0.00,,,0.00,LWC V2.11 B50,2013-02-02 20:19:00,
2013-02-02 12:20:00,47.2,42.7,29.80,ESE,106,0.0,0.7,86,0.00,,,0.00,WeatherCatV1.15B25,2013-02-02 20:20:00,
2013-02-02 12:24:00,60.8,38.2,30.24,WSW,249,0.0,0.0,43,0.00,,,0.00,LWC V2.11 B50,2013-02-02 20:24:00,
2013-02-02 12:25:00,47.2,42.7,29.80,ESE,106,0.0,0.7,86,0.00,,,0.00,WeatherCatV1.15B25,2013-02-02 20:25:00,
2013-02-02 12:29:00,61.1,38.4,30.24,WSW,252,0.0,0.0,43,0.00,,,0.00,LWC V2.11 B50,2013-02-02 20:29:00,
2013-02-02 12:30:00,47.2,42.7,29.80,ESE,106,0.0,0.7,86,0.00,,,0.00,WeatherCatV1.15B25,2013-02-02 20:30:00,
2013-02-02 12:34:00,61.3,38.6,30.24,ESE,107,0.0,0.0,43,0.00,,,0.00,LWC V2.11 B50,2013-02-02 20:34:00,
2013-02-02 12:35:00,47.2,42.7,29.80,ESE,106,0.0,0.7,86,0.00,,,0.00,WeatherCatV1.15B25,2013-02-02 20:35:00,
2013-02-02 12:39:00,61.4,38.1,30.24,East,101,0.0,0.0,42,0.00,,,0.00,LWC V2.11 B50,2013-02-02 20:39:00,
2013-02-02 12:40:00,47.2,42.7,29.80,ESE,106,0.0,0.7,86,0.00,,,0.00,WeatherCatV1.15B25,2013-02-02 20:40:00,
2013-02-02 12:44:00,61.7,38.4,30.23,ESE,109,1.0,1.0,42,0.00,,,0.00,LWC V2.11 B50,2013-02-02 20:44:00,
2013-02-02 12:45:00,47.2,42.7,29.80,ESE,106,0.0,0.7,86,0.00,,,0.00,WeatherCatV1.15B25,2013-02-02 20:45:00,
2013-02-02 12:49:00,62.0,37.4,30.23,SSE,160,0.0,2.0,40,0.00,,,0.00,LWC V2.11 B50,2013-02-02 20:49:00,
2013-02-02 12:50:00,47.2,42.7,29.80,ESE,106,0.0,0.7,86,0.00,,,0.00,WeatherCatV1.15B25,2013-02-02 20:50:00,
2013-02-02 12:54:00,62.4,38.4,30.23,SE,124,0.0,0.0,41,0.00,,,0.00,LWC V2.11 B50,2013-02-02 20:54:00,
2013-02-02 12:55:00,47.2,42.7,29.80,ESE,106,0.0,0.7,86,0.00,,,0.00,WeatherCatV1.15B25,2013-02-02 20:55:00,
2013-02-02 12:59:00,62.8,38.1,30.23,SSE,158,0.0,0.0,40,0.00,,,0.00,LWC V2.11 B50,2013-02-02 20:59:00,
2013-02-02 13:00:00,47.2,42.7,29.80,ESE,106,0.0,0.7,86,0.00,,,0.00,WeatherCatV1.15B25,2013-02-02 21:00:00,
2013-02-02 13:04:00,62.9,37.6,30.23,WSW,250,0.0,2.0,39,0.00,,,0.00,LWC V2.11 B50,2013-02-02 21:04:00,
2013-02-02 13:05:00,47.2,42.7,29.80,ESE,106,0.0,0.7,86,0.00,,,0.00,WeatherCatV1.15B25,2013-02-02 21:05:00,
2013-02-02 13:09:00,63.2,39.1,30.23,WSW,240,0.0,0.0,41,0.00,,,0.00,LWC V2.11 B50,2013-02-02 21:09:00,
2013-02-02 13:10:00,47.2,42.7,29.80,ESE,106,0.0,0.7,86,0.00,,,0.00,WeatherCatV1.15B25,2013-02-02 21:10:00,
2013-02-02 13:14:00,63.7,38.3,30.23,WSW,241,0.0,0.0,39,0.00,,,0.00,LWC V2.11 B50,2013-02-02 21:14:00,
2013-02-02 13:15:00,47.2,42.7,29.80,ESE,106,0.0,0.7,86,0.00,,,0.00,WeatherCatV1.15B25,2013-02-02 21:15:00,
2013-02-02 13:19:00,64.2,38.1,30.22,NNW,346,0.0,0.0,38,0.00,,,0.00,LWC V2.11 B50,2013-02-02 21:19:00,
2013-02-02 13:20:00,47.2,42.7,29.80,ESE,106,0.0,0.7,86,0.00,,,0.00,WeatherCatV1.15B25,2013-02-02 21:20:00,
2013-02-02 13:24:00,64.9,36.6,30.22,ESE,105,1.0,3.0,35,0.00,,,0.00,LWC V2.11 B50,2013-02-02 21:24:00,
2013-02-02 13:25:00,47.2,42.7,29.80,ESE,106,0.0,0.7,86,0.00,,,0.00,WeatherCatV1.15B25,2013-02-02 21:25:00,
2013-02-02 13:29:00,65.3,38.4,30.22,SW,221,0.0,0.0,37,0.00,,,0.00,LWC V2.11 B50,2013-02-02 21:29:00,
2013-02-02 13:30:00,47.2,42.7,29.80,ESE,106,0.0,0.7,86,0.00,,,0.00,WeatherCatV1.15B25,2013-02-02 21:30:00,
2013-02-02 13:35:00,65.7,37.3,30.22,NE,43,0.0,3.0,35,0.00,,,0.00,LWC V2.11 B50,2013-02-02 21:35:00,
2013-02-02 13:40:00,65.6,37.9,30.21,North,357,0.0,0.0,36,0.00,,,0.00,LWC V2.11 B50,2013-02-02 21:40:00,
2013-02-02 13:45:00,65.8,36.6,30.21,SSE,148,0.0,0.0,34,0.00,,,0.00,LWC V2.11 B50,2013-02-02 21:45:00,
2013-02-02 13:50:00,65.9,35.2,30.21,SSE,153,2.0,3.0,32,0.00,,,0.00,LWC V2.11 B50,2013-02-02 21:50:00,
2013-02-02 13:55:00,66.0,36.1,30.20,ESE,117,0.0,1.0,33,0.00,,,0.00,LWC V2.11 B50,2013-02-02 21:55:00,
2013-02-02 14:00:00,66.6,36.6,30.20,ESE,119,1.0,3.0,33,0.00,,,0.00,LWC V2.11 B50,2013-02-02 22:00:00,
2013-02-02 14:05:00,66.8,37.5,30.20,WNW,294,0.0,1.0,34,0.00,,,0.00,LWC V2.11 B50,2013-02-02 22:05:00,
2013-02-02 14:10:00,66.1,36.9,30.20,NE,37,1.0,2.0,34,0.00,,,0.00,LWC V2.11 B50,2013-02-02 22:10:00,
2013-02-02 14:15:00,66.3,37.1,30.19,ENE,72,2.0,3.0,34,0.00,,,0.00,LWC V2.11 B50,2013-02-02 22:15:00,
2013-02-02 14:20:00,66.0,38.3,30.19,SE,134,0.0,0.0,36,0.00,,,0.00,LWC V2.11 B50,2013-02-02 22:20:00,
2013-02-02 14:25:00,66.0,36.8,30.19,SW,233,0.0,0.0,34,0.00,,,0.00,LWC V2.11 B50,2013-02-02 22:25:00,
2013-02-02 14:30:00,65.9,37.5,30.19,South,190,0.0,1.0,35,0.00,,,0.00,LWC V2.11 B50,2013-02-02 22:30:00,
2013-02-02 14:35:00,66.1,34.6,30.19,WSW,243,2.0,3.0,31,0.00,,,0.00,LWC V2.11 B50,2013-02-02 22:35:00,
2013-02-02 14:40:00,65.9,36.0,30.19,West,259,1.0,1.0,33,0.00,,,0.00,LWC V2.11 B50,2013-02-02 22:40:00,
2013-02-02 14:45:00,65.8,35.9,30.19,SSE,166,1.0,3.0,33,0.00,,,0.00,LWC V2.11 B50,2013-02-02 22:45:00,
2013-02-02 14:50:00,65.9,36.0,30.19,East,82,0.0,1.0,33,0.00,,,0.00,LWC V2.11 B50,2013-02-02 22:50:00,
2013-02-02 14:55:00,66.1,36.2,30.19,SE,131,0.0,1.0,33,0.00,,,0.00,LWC V2.11 B50,2013-02-02 22:55:00,
2013-02-02 15:00:00,66.1,34.6,30.19,SW,221,0.0,2.0,31,0.00,,,0.00,LWC V2.11 B50,2013-02-02 23:00:00,
2013-02-02 15:05:00,65.8,34.3,30.19,South,190,1.0,4.0,31,0.00,,,0.00,LWC V2.11 B50,2013-02-02 23:05:00,
2013-02-02 15:10:00,65.7,35.0,30.19,SE,141,1.0,1.0,32,0.00,,,0.00,LWC V2.11 B50,2013-02-02 23:10:00,
2013-02-02 15:15:00,65.6,36.5,30.19,West,275,2.0,3.0,34,0.00,,,0.00,LWC V2.11 B50,2013-02-02 23:15:00,
2013-02-02 15:20:00,65.1,37.5,30.19,West,272,0.0,2.0,36,0.00,,,0.00,LWC V2.11 B50,2013-02-02 23:20:00,
2013-02-02 15:25:00,65.0,38.8,30.19,SW,236,1.0,3.0,38,0.00,,,0.00,LWC V2.11 B50,2013-02-02 23:25:00,
2013-02-02 15:30:00,64.7,40.5,30.19,West,266,2.0,4.0,41,0.00,,,0.00,LWC V2.11 B50,2013-02-02 23:30:00,
2013-02-02 15:35:00,64.3,40.7,30.19,West,271,2.0,2.0,42,0.00,,,0.00,LWC V2.11 B50,2013-02-02 23:35:00,
2013-02-02 15:40:00,64.3,41.3,30.19,West,264,0.0,2.0,43,0.00,,,0.00,LWC V2.11 B50,2013-02-02 23:40:00,
2013-02-02 15:45:00,63.8,42.0,30.19,WSW,240,0.0,1.0,45,0.00,,,0.00,LWC V2.11 B50,2013-02-02 23:45:00,
2013-02-02 15:50:00,63.7,42.5,30.19,SSE,162,0.0,1.0,46,0.00,,,0.00,LWC V2.11 B50,2013-02-02 23:50:00,
2013-02-02 15:55:00,63.6,43.0,30.19,SW,229,0.0,0.0,47,0.00,,,0.00,LWC V2.11 B50,2013-02-02 23:55:00,
2013-02-02 16:00:00,63.3,43.3,30.19,WNW,284,0.0,0.0,48,0.00,,,0.00,LWC V2.11 B50,2013-02-03 00:00:00,
2013-02-02 16:05:00,63.3,43.8,30.18,South,181,0.0,0.0,49,0.00,,,0.00,LWC V2.11 B50,2013-02-03 00:05:00,
2013-02-02 16:10:00,63.0,43.5,30.18,SSW,211,0.0,0.0,49,0.00,,,0.00,LWC V2.11 B50,2013-02-03 00:10:00,
2013-02-02 16:15:00,62.6,43.2,30.19,SE,136,0.0,0.0,49,0.00,,,0.00,LWC V2.11 B50,2013-02-03 00:15:00,
2013-02-02 16:20:00,62.3,43.4,30.18,SE,124,0.0,0.0,50,0.00,,,0.00,LWC V2.11 B50,2013-02-03 00:20:00,
2013-02-02 16:25:00,62.0,43.1,30.19,West,266,0.0,1.0,50,0.00,,,0.00,LWC V2.11 B50,2013-02-03 00:25:00,
2013-02-02 16:30:00,61.8,43.5,30.19,West,266,0.0,0.0,51,0.00,,,0.00,LWC V2.11 B50,2013-02-03 00:30:00,
2013-02-02 16:35:00,61.6,44.3,30.19,WSW,240,0.0,1.0,53,0.00,,,0.00,LWC V2.11 B50,2013-02-03 00:35:00,
2013-02-02 16:40:00,61.2,44.4,30.19,SW,233,0.0,0.0,54,0.00,,,0.00,LWC V2.11 B50,2013-02-03 00:40:00,
2013-02-02 16:45:00,60.9,45.1,30.19,SW,235,0.0,0.0,56,0.00,,,0.00,LWC V2.11 B50,2013-02-03 00:45:00,
2013-02-02 16:50:00,61.0,45.2,30.19,SW,235,0.0,0.0,56,0.00,,,0.00,LWC V2.11 B50,2013-02-03 00:50:00,
2013-02-02 16:55:00,60.7,45.4,30.19,WSW,248,0.0,0.0,57,0.00,,,0.00,LWC V2.11 B50,2013-02-03 00:55:00,
2013-02-02 17:00:00,60.7,45.4,30.19,WSW,248,0.0,0.0,57,0.00,,,0.00,LWC V2.11 B50,2013-02-03 01:00:00,
2013-02-02 17:05:00,60.2,45.4,30.19,SSW,193,0.0,0.0,58,0.00,,,0.00,LWC V2.11 B50,2013-02-03 01:05:00,
2013-02-02 17:10:00,59.7,45.3,30.19,SSW,193,0.0,0.0,59,0.00,,,0.00,LWC V2.11 B50,2013-02-03 01:10:00,
2013-02-02 17:15:00,59.2,45.3,30.19,SSW,193,0.0,0.0,60,0.00,,,0.00,LWC V2.11 B50,2013-02-03 01:15:00,
2013-02-02 17:20:00,58.9,45.5,30.19,SSW,193,0.0,0.0,61,0.00,,,0.00,LWC V2.11 B50,2013-02-03 01:20:00,
2013-02-02 17:25:00,58.5,45.5,30.19,SSW,193,0.0,0.0,62,0.00,,,0.00,LWC V2.11 B50,2013-02-03 01:25:00,
2013-02-02 17:30:00,57.8,45.3,30.19,SSW,193,0.0,0.0,63,0.00,,,0.00,LWC V2.11 B50,2013-02-03 01:30:00,
2013-02-02 17:35:00,57.3,45.2,30.19,SSW,193,0.0,0.0,64,0.00,,,0.00,LWC V2.11 B50,2013-02-03 01:35:00,
2013-02-02 17:40:00,57.0,45.3,30.19,SSW,193,0.0,0.0,65,0.00,,,0.00,LWC V2.11 B50,2013-02-03 01:40:00,
2013-02-02 17:45:00,56.7,45.1,30.19,SSW,193,0.0,0.0,65,0.00,,,0.00,LWC V2.11 B50,2013-02-03 01:45:00,
2013-02-02 17:50:00,56.2,45.0,30.19,SSW,193,0.0,0.0,66,0.00,,,0.00,LWC V2.11 B50,2013-02-03 01:50:00,
2013-02-02 17:55:00,55.7,44.9,30.19,SSW,193,0.0,0.0,67,0.00,,,0.00,LWC V2.11 B50,2013-02-03 01:55:00,
2013-02-02 18:00:00,55.3,44.9,30.19,SSW,193,0.0,0.0,68,0.00,,,0.00,LWC V2.11 B50,2013-02-03 02:00:00,
2013-02-02 18:05:00,54.9,44.9,30.19,South,191,0.0,0.0,69,0.00,,,0.00,LWC V2.11 B50,2013-02-03 02:05:00,
2013-02-02 18:10:00,54.7,44.7,30.19,South,191,0.0,0.0,69,0.00,,,0.00,LWC V2.11 B50,2013-02-03 02:10:00,
2013-02-02 18:15:00,54.2,44.6,30.20,South,191,0.0,0.0,70,0.00,,,0.00,LWC V2.11 B50,2013-02-03 02:15:00,
2013-02-02 18:20:00,53.7,44.9,30.19,South,191,0.0,0.0,72,0.00,,,0.00,LWC V2.11 B50,2013-02-03 02:20:00,
2013-02-02 18:25:00,53.2,44.4,30.19,South,191,0.0,0.0,72,0.00,,,0.00,LWC V2.11 B50,2013-02-03 02:25:00,
2013-02-02 18:30:00,52.7,44.6,30.19,SSW,192,0.0,0.0,74,0.00,,,0.00,LWC V2.11 B50,2013-02-03 02:30:00,
2013-02-02 18:35:00,52.5,44.5,30.19,South,191,0.0,0.0,74,0.00,,,0.00,LWC V2.11 B50,2013-02-03 02:35:00,
2013-02-02 18:40:00,52.3,44.6,30.19,South,191,0.0,0.0,75,0.00,,,0.00,LWC V2.11 B50,2013-02-03 02:40:00,
2013-02-02 18:45:00,52.1,44.4,30.19,South,191,0.0,0.0,75,0.00,,,0.00,LWC V2.11 B50,2013-02-03 02:45:00,
2013-02-02 18:50:00,51.6,43.9,30.20,South,191,0.0,0.0,75,0.00,,,0.00,LWC V2.11 B50,2013-02-03 02:50:00,
2013-02-02 18:55:00,51.1,43.8,30.20,South,191,0.0,0.0,76,0.00,,,0.00,LWC V2.11 B50,2013-02-03 02:55:00,
2013-02-02 19:00:00,50.6,44.0,30.20,South,191,0.0,0.0,78,0.00,,,0.00,LWC V2.11 B50,2013-02-03 03:00:00,
2013-02-02 19:05:00,50.4,43.8,30.20,South,191,0.0,0.0,78,0.00,,,0.00,LWC V2.11 B50,2013-02-03 03:05:00,
2013-02-02 19:10:00,50.3,44.0,30.20,South,191,0.0,0.0,79,0.00,,,0.00,LWC V2.11 B50,2013-02-03 03:10:00,
2013-02-02 19:15:00,50.0,43.7,30.20,SSW,192,0.0,0.0,79,0.00,,,0.00,LWC V2.11 B50,2013-02-03 03:15:00,
2013-02-02 19:20:00,49.9,43.6,30.20,SSW,192,0.0,0.0,79,0.00,,,0.00,LWC V2.11 B50,2013-02-03 03:20:00,
2013-02-02 19:25:00,49.6,43.4,30.20,South,191,0.0,0.0,79,0.00,,,0.00,LWC V2.11 B50,2013-02-03 03:25:00,
2013-02-02 19:30:00,49.3,43.1,30.20,South,191,0.0,0.0,79,0.00,,,0.00,LWC V2.11 B50,2013-02-03 03:30:00,
2013-02-02 19:35:00,49.4,43.2,30.20,South,191,0.0,0.0,79,0.00,,,0.00,LWC V2.11 B50,2013-02-03 03:35:00,
2013-02-02 19:40:00,49.1,42.9,30.20,South,191,0.0,0.0,79,0.00,,,0.00,LWC V2.11 B50,2013-02-03 03:40:00,
2013-02-02 19:45:00,48.9,43.0,30.20,South,191,0.0,0.0,80,0.00,,,0.00,LWC V2.11 B50,2013-02-03 03:45:00,
2013-02-02 19:50:00,48.6,42.7,30.20,South,191,0.0,0.0,80,0.00,,,0.00,LWC V2.11 B50,2013-02-03 03:50:00,
2013-02-02 19:55:00,48.2,42.6,30.20,South,191,0.0,0.0,81,0.00,,,0.00,LWC V2.11 B50,2013-02-03 03:55:00,
2013-02-02 20:00:00,47.9,42.4,30.20,South,191,0.0,0.0,81,0.00,,,0.00,LWC V2.11 B50,2013-02-03 04:00:00,
2013-02-02 20:05:00,47.7,42.5,30.20,SSW,192,0.0,0.0,82,0.00,,,0.00,LWC V2.11 B50,2013-02-03 04:05:00,
2013-02-02 20:10:00,47.6,42.4,30.20,South,191,0.0,0.0,82,0.00,,,0.00,LWC V2.11 B50,2013-02-03 04:10:00,
2013-02-02 20:15:00,47.6,42.4,30.20,SSW,192,0.0,0.0,82,0.00,,,0.00,LWC V2.11 B50,2013-02-03 04:15:00,
2013-02-02 20:20:00,47.3,42.1,30.20,SSW,192,0.0,0.0,82,0.00,,,0.00,LWC V2.11 B50,2013-02-03 04:20:00,
2013-02-02 20:25:00,47.4,42.2,30.20,South,191,0.0,0.0,82,0.00,,,0.00,LWC V2.11 B50,2013-02-03 04:25:00,
2013-02-02 20:30:00,47.3,42.1,30.20,South,191,0.0,0.0,82,0.00,,,0.00,LWC V2.11 B50,2013-02-03 04:30:00,
2013-02-02 20:35:00,47.1,41.9,30.20,South,191,0.0,1.0,82,0.00,,,0.00,LWC V2.11 B50,2013-02-03 04:35:00,
2013-02-02 20:40:00,46.8,41.6,30.20,South,191,0.0,0.0,82,0.00,,,0.00,LWC V2.11 B50,2013-02-03 04:40:00,
2013-02-02 20:45:00,46.5,41.3,30.20,South,191,0.0,0.0,82,0.00,,,0.00,LWC V2.11 B50,2013-02-03 04:45:00,
2013-02-02 20:50:00,46.7,41.5,30.20,South,191,0.0,0.0,82,0.00,,,0.00,LWC V2.11 B50,2013-02-03 04:50:00,
2013-02-02 20:55:00,47.0,41.5,30.20,South,191,0.0,0.0,81,0.00,,,0.00,LWC V2.11 B50,2013-02-03 04:55:00,
2013-02-02 21:00:00,46.7,41.2,30.20,South,191,0.0,0.0,81,0.00,,,0.00,LWC V2.11 B50,2013-02-03 05:00:00,
2013-02-02 21:05:00,46.3,41.1,30.20,SSW,192,0.0,0.0,82,0.00,,,0.00,LWC V2.11 B50,2013-02-03 05:05:00,
2013-02-02 21:10:00,46.1,40.9,30.20,South,191,0.0,0.0,82,0.00,,,0.00,LWC V2.11 B50,2013-02-03 05:10:00,
2013-02-02 21:15:00,45.8,40.6,30.20,South,191,0.0,0.0,82,0.00,,,0.00,LWC V2.11 B50,2013-02-03 05:15:00,
2013-02-02 21:20:00,45.9,40.7,30.20,South,190,0.0,0.0,82,0.00,,,0.00,LWC V2.11 B50,2013-02-03 05:20:00,
2013-02-02 21:25:00,46.3,40.8,30.20,South,190,0.0,0.0,81,0.00,,,0.00,LWC V2.11 B50,2013-02-03 05:25:00,
2013-02-02 21:30:00,46.3,40.8,30.20,South,191,0.0,1.0,81,0.00,,,0.00,LWC V2.11 B50,2013-02-03 05:30:00,
2013-02-02 21:35:00,45.8,40.3,30.20,South,190,0.0,0.0,81,0.00,,,0.00,LWC V2.11 B50,2013-02-03 05:35:00,
2013-02-02 21:40:00,45.1,39.9,30.20,South,191,0.0,0.0,82,0.00,,,0.00,LWC V2.11 B50,2013-02-03 05:40:00,
2013-02-02 21:45:00,44.6,40.1,30.20,South,190,0.0,0.0,84,0.00,,,0.00,LWC V2.11 B50,2013-02-03 05:45:00,
2013-02-02 21:50:00,44.4,39.9,30.20,South,190,0.0,0.0,84,0.00,,,0.00,LWC V2.11 B50,2013-02-03 05:50:00,
2013-02-02 21:55:00,44.4,39.9,30.20,South,190,0.0,0.0,84,0.00,,,0.00,LWC V2.11 B50,2013-02-03 05:55:00,
2013-02-02 22:00:00,44.2,39.7,30.20,South,191,0.0,0.0,84,0.00,,,0.00,LWC V2.11 B50,2013-02-03 06:00:00,
2013-02-02 22:05:00,44.0,39.5,30.20,South,190,0.0,0.0,84,0.00,,,0.00,LWC V2.11 B50,2013-02-03 06:05:00,
2013-02-02 22:10:00,44.3,39.8,30.20,South,180,0.0,1.0,84,0.00,,,0.00,LWC V2.11 B50,2013-02-03 06:10:00,
2013-02-02 22:15:00,47.1,42.7,29.80,ESE,106,0.0,0.7,86,0.00,,,0.00,WeatherCatV1.15B25,2013-02-03 06:15:00,
2013-02-02 22:20:00,44.3,39.8,30.20,South,180,0.0,1.0,84,0.00,,,0.00,LWC V2.11 B50,2013-02-03 06:20:00,
2013-02-02 22:25:00,47.1,42.7,29.80,ESE,106,0.0,0.7,86,0.00,,,0.00,WeatherCatV1.15B25,2013-02-03 06:25:00,
2013-02-02 22:30:00,44.3,39.8,30.20,South,180,0.0,1.0,84,0.00,,,0.00,LWC V2.11 B50,2013-02-03 06:30:00,
2013-02-02 22:35:00,47.1,42.7,29.80,ESE,106,0.0,0.7,86,0.00,,,0.00,WeatherCatV1.15B25,2013-02-03 06:35:00,
2013-02-02 22:40:00,44.3,39.8,30.20,South,180,0.0,1.0,84,0.00,,,0.00,LWC V2.11 B50,2013-02-03 06:40:00,
2013-02-02 22:45:00,47.1,42.7,29.80,ESE,106,0.0,0.7,86,0.00,,,0.00,WeatherCatV1.15B25,2013-02-03 06:45:00,
2013-02-02 22:50:00,44.3,39.8,30.20,South,180,0.0,1.0,84,0.00,,,0.00,LWC V2.11 B50,2013-02-03 06:50:00,
2013-02-02 22:55:00,47.1,42.7,29.80,ESE,106,0.0,0.7,86,0.00,,,0.00,WeatherCatV1.15B25,2013-02-03 06:55:00,
2013-02-02 23:00:00,44.0,38.6,30.20,South,180,0.0,1.0,81,0.00,,,0.00,LWC V2.11 B50,2013-02-03 07:00:00,
2013-02-02 23:05:00,47.1,42.7,29.80,ESE,106,0.0,0.7,86,0.00,,,0.00,WeatherCatV1.15B25,2013-02-03 07:05:00,
2013-02-02 23:10:00,44.0,38.6,30.20,South,180,0.0,1.0,81,0.00,,,0.00,LWC V2.11 B50,2013-02-03 07:10:00,
2013-02-02 23:15:00,47.1,42.7,29.80,ESE,106,0.0,0.7,86,0.00,,,0.00,WeatherCatV1.15B25,2013-02-03 07:15:00,
2013-02-02 23:20:00,44.0,38.6,30.20,South,180,0.0,1.0,81,0.00,,,0.00,LWC V2.11 B50,2013-02-03 07:20:00,
2013-02-02 23:25:00,47.1,42.7,29.80,ESE,106,0.0,0.7,86,0.00,,,0.00,WeatherCatV1.15B25,2013-02-03 07:25:00,
2013-02-02 23:30:00,44.0,38.6,30.20,South,180,0.0,1.0,81,0.00,,,0.00,LWC V2.11 B50,2013-02-03 07:30:00,
2013-02-02 23:35:00,47.1,42.7,29.80,ESE,106,0.0,0.7,86,0.00,,,0.00,WeatherCatV1.15B25,2013-02-03 07:35:00,
2013-02-02 23:40:00,44.0,38.6,30.20,South,180,0.0,1.0,81,0.00,,,0.00,LWC V2.11 B50,2013-02-03 07:40:00,
2013-02-02 23:45:00,47.1,42.7,29.80,ESE,106,0.0,0.7,86,0.00,,,0.00,WeatherCatV1.15B25,2013-02-03 07:45:00,
2013-02-02 23:50:00,44.0,38.6,30.20,South,180,0.0,1.0,81,0.00,,,0.00,LWC V2.11 B50,2013-02-03 07:50:00,
2013-02-02 23:55:00,47.1,42.7,29.80,ESE,106,0.0,0.7,86,0.00,,,0.00,WeatherCatV1.15B25,2013-02-03 07:55:00,